Volver al catálogo

STARLINK-30144

ActivoComunicacionesVLEO
NORAD 56835·PAYLOAD·🇺🇸 United States

Lanzado Jun 4, 2023 desde Cape Canaveral Space Force Station

Loading…

Próximos Pases (próximas 24 horas)

TLE

ActualizadoSource: CelesTrak SupGP

Época: Sep 14, 2026, 22:24 UTC

1 56835C 23079N   26257.93381944  .00170550  00000+0  24977-2 0  2576
2 56835  42.9861  95.9951 0024503 264.7775 210.9939 15.54231056    15

Sigue STARLINK-30144 en tiempo real con AllMySat

Download on the App Store